• în Republica Moldova
  • Lista ţărilor
  • Pe 7 zile
  • Temperatura apei
  • Hartă satelitară
  • Meteo pe hartă
  • Widget-uri
  • user-avatar
    Intrare

    Meteo pe oră la Kalgoorlie

    Astăzi, 24 Iulie, Luni

    Timp Temperatura Precipitaţii Vânt Presiune Umiditate
    00:00 +12°C° 0 mm 3 m/s 731 mmHg 62%
    01:00 +12°C° 0 mm 3 m/s 731 mmHg 67%
    02:00 +11°C° 0 mm 3 m/s 731 mmHg 72%
    03:00 +11°C° 0 mm 3 m/s 731 mmHg 76%
    04:00 +10°C° 0 mm 3 m/s 731 mmHg 81%
    05:00 +10°C° 0 mm 3 m/s 731 mmHg 85%
    06:00 +10°C° 0 mm 3 m/s 731 mmHg 85%
    07:00 +10°C° 0 mm 3 m/s 732 mmHg 85%
    08:00 +11°C° 0 mm 3 m/s 732 mmHg 82%
    09:00 +13°C° 0 mm 3 m/s 732 mmHg 74%
    10:00 +14°C° 0 mm 3 m/s 732 mmHg 67%
    11:00 +17°C° 0 mm 3 m/s 732 mmHg 59%
    12:00 +18°C° 0 mm 4 m/s 731 mmHg 56%
    13:00 +18°C° 0 mm 4 m/s 731 mmHg 52%
    14:00 +19°C° 0 mm 5 m/s 731 mmHg 49%
    15:00 +18°C° 0 mm 4 m/s 731 mmHg 50%
    16:00 +18°C° 0 mm 4 m/s 731 mmHg 51%
    17:00 +18°C° 0 mm 4 m/s 731 mmHg 53%
    18:00 +17°C° 0 mm 4 m/s 731 mmHg 55%
    19:00 +17°C° 0 mm 4 m/s 732 mmHg 57%
    20:00 +15°C° 0 mm 4 m/s 732 mmHg 59%
    21:00 +16°C° 0 mm 3 m/s 732 mmHg 61%
    22:00 +14°C° 0 mm 3 m/s 732 mmHg 62%
    23:00 +14°C° 0 mm 3 m/s 732 mmHg 64%

    Mâine, 25 Iulie, Marţi

    Timp Temperatura Precipitaţii Vânt Presiune Umiditate
    00:00 +13°C° 0 mm 3 m/s 732 mmHg 67%
    01:00 +12°C° 0 mm 3 m/s 732 mmHg 70%
    02:00 +11°C° 0 mm 3 m/s 732 mmHg 74%
    03:00 +11°C° 0 mm 3 m/s 733 mmHg 77%
    04:00 +10°C° 0 mm 3 m/s 733 mmHg 80%
    05:00 +9°C° 0 mm 3 m/s 733 mmHg 83%
    06:00 +10°C° 0 mm 3 m/s 733 mmHg 81%
    07:00 +10°C° 0 mm 3 m/s 734 mmHg 79%
    08:00 +10°C° 0 mm 3 m/s 734 mmHg 77%
    09:00 +13°C° 0 mm 2 m/s 734 mmHg 68%
    10:00 +14°C° 0 mm 1 m/s 734 mmHg 58%
    11:00 +16°C° 0 mm 1 m/s 734 mmHg 48%
    12:00 +18°C° 0 mm 1 m/s 733 mmHg 44%
    13:00 +18°C° 0 mm 2 m/s 733 mmHg 39%
    14:00 +19°C° 0 mm 2 m/s 732 mmHg 35%
    15:00 +19°C° 0 mm 2 m/s 732 mmHg 36%
    16:00 +18°C° 0 mm 2 m/s 732 mmHg 37%
    17:00 +18°C° 0 mm 2 m/s 732 mmHg 38%
    18:00 +17°C° 0 mm 2 m/s 732 mmHg 40%
    19:00 +16°C° 0 mm 2 m/s 733 mmHg 42%
    20:00 +15°C° 0 mm 2 m/s 733 mmHg 45%
    21:00 +15°C° 0 mm 2 m/s 733 mmHg 47%
    22:00 +14°C° 0 mm 2 m/s 733 mmHg 49%
    23:00 +14°C° 0 mm 2 m/s 732 mmHg 51%

    Poimâine, 26 Iulie, Miercuri

    Timp Temperatura Precipitaţii Vânt Presiune Umiditate
    00:00 +14°C° 0 mm 2 m/s 732 mmHg 52%
    01:00 +13°C° 0 mm 3 m/s 732 mmHg 53%
    02:00 +13°C° 0 mm 3 m/s 732 mmHg 53%
    03:00 +12°C° 0 mm 3 m/s 731 mmHg 55%
    04:00 +12°C° 0 mm 3 m/s 731 mmHg 56%
    05:00 +12°C° 0 mm 3 m/s 731 mmHg 57%
    06:00 +12°C° 0 mm 3 m/s 731 mmHg 57%
    07:00 +12°C° 0 mm 3 m/s 732 mmHg 57%
    08:00 +13°C° 0 mm 3 m/s 732 mmHg 56%
    09:00 +16°C° 0 mm 3 m/s 732 mmHg 51%
    10:00 +18°C° 0 mm 4 m/s 732 mmHg 45%
    11:00 +21°C° 0 mm 5 m/s 732 mmHg 39%
    12:00 +22°C° 0 mm 6 m/s 731 mmHg 35%
    13:00 +23°C° 0 mm 6 m/s 730 mmHg 31%
    14:00 +24°C° 0 mm 7 m/s 729 mmHg 27%
    15:00 +23°C° 0 mm 6 m/s 730 mmHg 27%
    16:00 +22°C° 0 mm 6 m/s 730 mmHg 28%
    17:00 +21°C° 0 mm 5 m/s 730 mmHg 28%
    18:00 +20°C° 0 mm 4 m/s 730 mmHg 31%
    19:00 +18°C° 0 mm 4 m/s 731 mmHg 34%
    20:00 +17°C° 0 mm 4 m/s 731 mmHg 37%
    21:00 +17°C° 0 mm 4 m/s 731 mmHg 43%
    22:00 +15°C° 0 mm 4 m/s 731 mmHg 49%
    23:00 +14°C° 0 mm 4 m/s 731 mmHg 55%

    27 Iulie, Joi

    Timp Temperatura Precipitaţii Vânt Presiune Umiditate
    00:00 +14°C° 0 mm 4 m/s 731 mmHg 64%
    01:00 +13°C° 0 mm 4 m/s 731 mmHg 72%
    02:00 +13°C° 0 mm 4 m/s 731 mmHg 81%
    03:00 +13°C° 0 mm 3 m/s 731 mmHg 85%
    04:00 +13°C° 0 mm 2 m/s 731 mmHg 89%
    05:00 +13°C° 0 mm 2 m/s 731 mmHg 93%
    06:00 +13°C° 0 mm 1 m/s 731 mmHg 91%
    07:00 +13°C° 0 mm 1 m/s 732 mmHg 88%
    08:00 +13°C° 0 mm 0 m/s 732 mmHg 86%
    09:00 +16°C° 0 mm 2 m/s 732 mmHg 76%
    10:00 +17°C° 0 mm 3 m/s 732 mmHg 67%
    11:00 +19°C° 0 mm 5 m/s 731 mmHg 58%
    12:00 +20°C° 0 mm 6 m/s 730 mmHg 50%
    13:00 +22°C° 0 mm 7 m/s 729 mmHg 43%
    14:00 +23°C° 0 mm 8 m/s 728 mmHg 36%
    15:00 +22°C° 0 mm 7 m/s 728 mmHg 32%
    16:00 +22°C° 0 mm 6 m/s 728 mmHg 29%
    17:00 +22°C° 0 mm 5 m/s 727 mmHg 26%
    18:00 +21°C° 0 mm 5 m/s 728 mmHg 27%
    19:00 +20°C° 0 mm 5 m/s 728 mmHg 28%
    20:00 +19°C° 0 mm 4 m/s 728 mmHg 29%
    21:00 +17°C° 0 mm 5 m/s 727 mmHg 30%
    22:00 +17°C° 0 mm 5 m/s 727 mmHg 31%
    23:00 +16°C° 0 mm 5 m/s 727 mmHg 32%

    28 Iulie, Vineri

    Timp Temperatura Precipitaţii Vânt Presiune Umiditate
    00:00 +16°C° 0 mm 5 m/s 726 mmHg 33%
    01:00 +15°C° 0 mm 5 m/s 726 mmHg 34%
    02:00 +14°C° 0 mm 5 m/s 726 mmHg 36%
    03:00 +14°C° 0 mm 6 m/s 725 mmHg 41%
    04:00 +13°C° 0 mm 6 m/s 725 mmHg 47%
    05:00 +12°C° 0 mm 7 m/s 725 mmHg 52%
    06:00 +12°C° 0 mm 8 m/s 725 mmHg 60%
    07:00 +12°C° 0 mm 10 m/s 725 mmHg 68%
    08:00 +12°C° 0 mm 11 m/s 726 mmHg 77%
    09:00 +14°C° 0 mm 12 m/s 726 mmHg 69%
    10:00 +17°C° 0 mm 12 m/s 726 mmHg 61%
    11:00 +19°C° 0 mm 13 m/s 726 mmHg 53%
    12:00 +18°C° 0,3 mm 12 m/s 725 mmHg 59%
    13:00 +17°C° 0,3 mm 12 m/s 725 mmHg 64%
    14:00 +17°C° 0,3 mm 11 m/s 724 mmHg 69%
    15:00 +16°C° 0,4 mm 10 m/s 725 mmHg 71%
    16:00 +15°C° 0,4 mm 9 m/s 725 mmHg 73%
    17:00 +15°C° 0,4 mm 8 m/s 726 mmHg 74%
    18:00 +14°C° 0,1 mm 7 m/s 726 mmHg 75%
    19:00 +12°C° 0,1 mm 7 m/s 727 mmHg 75%
    20:00 +11°C° 0,1 mm 6 m/s 728 mmHg 76%
    21:00 +11°C° 0 mm 6 m/s 728 mmHg 76%
    22:00 +10°C° 0 mm 6 m/s 728 mmHg 76%
    23:00 +9°C° 0 mm 6 m/s 728 mmHg 76%

    29 Iulie, Sâmbătă

    Timp Temperatura Precipitaţii Vânt Presiune Umiditate
    00:00 +9°C° 0 mm 6 m/s 728 mmHg 77%
    01:00 +8°C° 0 mm 6 m/s 729 mmHg 79%
    02:00 +8°C° 0 mm 6 m/s 729 mmHg 80%
    03:00 +8°C° 0 mm 6 m/s 729 mmHg 79%
    04:00 +8°C° 0 mm 7 m/s 730 mmHg 78%
    05:00 +6°C° 0 mm 7 m/s 730 mmHg 77%
    06:00 +6°C° 0 mm 8 m/s 731 mmHg 75%
    07:00 +6°C° 0 mm 8 m/s 732 mmHg 73%
    08:00 +6°C° 0 mm 9 m/s 733 mmHg 71%
    09:00 +7°C° 0 mm 9 m/s 733 mmHg 62%
    10:00 +8°C° 0 mm 10 m/s 733 mmHg 53%
    11:00 +9°C° 0 mm 10 m/s 734 mmHg 44%
    12:00 +11°C° 0 mm 9 m/s 733 mmHg 41%
    13:00 +11°C° 0 mm 9 m/s 733 mmHg 39%
    14:00 +12°C° 0 mm 8 m/s 733 mmHg 36%
    15:00 +12°C° 0 mm 8 m/s 733 mmHg 37%
    16:00 +11°C° 0 mm 7 m/s 734 mmHg 39%
    17:00 +11°C° 0 mm 6 m/s 734 mmHg 40%
    18:00 +10°C° 0 mm 5 m/s 735 mmHg 44%
    19:00 +10°C° 0 mm 4 m/s 735 mmHg 47%
    20:00 +9°C° 0 mm 3 m/s 736 mmHg 51%
    21:00 +9°C° 0 mm 3 m/s 736 mmHg 53%
    22:00 +8°C° 0 mm 3 m/s 736 mmHg 56%
    23:00 +8°C° 0 mm 3 m/s 736 mmHg 58%
    Arată mai mult